Regional Weather Roundup
Issued by NWS

Home | Current Version | Previous Version | Text Only | Print | Product List | Glossary Off
Versions: 1 2 3 4 5 6 7 8 9 10 11 12 13 14 15 16 17 18 19 20 21 22 23 24 25 26 27 28 29 30 31 32 33 34 35 36 37 38 39 40 41 42 43 44 45 46 47 48 49 50

000
ASUS43 KFSD 241410
RWRSD

WEATHER ROUNDUP FOR SOUTH DAKOTA
NATIONAL WEATHER SERVICE SIOUX FALLS SD
800 AM CST SAT FEB 24 2018

NOTE: "FAIR" INDICATES FEW OR NO CLOUDS BELOW 12,000 FEET WITH NO
SIGNIFICANT WEATHER AND/OR OBSTRUCTIONS TO VISIBILITY.


SDZ001>005-009-010-012>017-241500-
NORTHWEST AND NORTH CENTRAL SOUTH DAKOTA

CITY           SKY/WX    TMP DP  RH WIND       PRES   REMARKS
BUFFALO          N/A      8   3  80 SW3       29.68S
FAITH            N/A      4   3  96 W5        29.80R WCI  -5
MOBRIDGE       CLOUDY    11   6  81 SE10      29.86F WCI  -3
$$

SDZ012>016-024>037-041>051-057-063-072>074-241500-
SOUTHWEST AND SOUTH CENTRAL SOUTH DAKOTA

CITY           SKY/WX    TMP DP  RH WIND       PRES   REMARKS
RAPID CTY ARPT MOCLDY    12   9  87 NW3       29.73F
PIERRE         CLOUDY     9   7  92 SE15      29.91F WCI  -8
CUSTER         PTCLDY    13  10  88 W6        29.63S WCI   4
ELLSWORTH AFB  MOCLDY    11   8  87 NW3       29.72F
PHILIP         LGT SNOW  14  12  92 E8        29.82F FOG     WCI   3
PINE RIDGE     CLOUDY    24  21  88 SW7       29.75F WCI  16
SPEARFISH        N/A     18  10  73 NW12      29.73R WCI   5
WINNER         SNOW      18  14  84 SE9       29.89F VSB 1/2 WCI   7
$$

SDZ004>011-016>023-039-040-241500-
NORTHEAST SOUTH DAKOTA

CITY           SKY/WX    TMP DP  RH WIND       PRES   REMARKS
ABERDEEN       CLOUDY    -1  -6  79 CALM      30.02F HAZE
WATERTOWN      CLOUDY     1  -3  83 CALM      29.99F
BROOKINGS      CLOUDY     9   7  92 S3        30.03R
SISSETON         N/A      0  -4  83 SE6       30.05F WCI -12
$$

SDZ017-020-022-023-036>040-048>070-241500-
SOUTHEAST SOUTH DAKOTA

CITY           SKY/WX    TMP DP  RH WIND       PRES   REMARKS
SIOUX FALLS    CLOUDY    16  13  88 SE3       30.03S FOG
HURON          CLOUDY     5   3  91 SE5       30.03S FOG     WCI  -4
CHAMBERLAIN    LGT SNOW  13  12  94 NE3       29.95F VSB 3/4
MITCHELL       FOG        8   5  87 CALM      30.03F VSB 1/4
$$

ABBREVIATIONS USED IN REMARKS
   TC - TEMPERATURE IN CELSIUS
  WCI - WIND CHILL INDEX
   HX - HEAT INDEX
  VSB - VISIBILITY





USA.gov is the U.S. government's official web portal to all federal, state and local government web resources and services.